STARLINK-36356, 68242

Orbit data source: Space-Track

STARLINK-36356, 68242 is a payload satellite owned by SpaceX/Seattle (US) in LEO that was launched on Tue, 17 Mar 2026 UTC via an FALCON 9 launch vehicle from the Air Force Eastern Test Range (AFETR). Payload-class satellites include a variety of spacecraft equipped with specific instruments for various scientific and technological missions. These include communications satellites like Starlink; space stations such as the ISS; scientific satellites like the Hubble; Earth observation satellites from companies like Planet Labs, Umbra, and HawkEye 360; GPS; miniature CubeSats for education and research; and military/defense satellites.

Loading next visibility...
Identifier
68242, 2026-054L
Orbit
LEO
Country
Flag of USUS
Related business
Manufacturer
SpaceX/Seattle
Mission
Operational spacecraft
Bus & Motor
STARLINK V2MO, Unknown motor
Mass
575 kg wet, ~530 kg dry
Launch date (UTC)
2026-03-17 (2 months ago)
Launch vehicle
FALCON 9
Launch site
Air Force Eastern Test Range (AFETR)
Object type
Payload
Rocket body
Debris
Shape & HBR
Unknown shape, 17.7 m
Radar Cross Section
RCS unknown

Expand to show TLE details & history
Last TLE update: 7 hours ago

TLE from 7 hours ago
0 STARLINK-36356
1 68242U 26054L   26145.44156966  .00019355  00000-0  66368-3 0  9993
2 68242  53.1603 300.3659 0001134  61.3048 298.8066 15.30210124 10749
Epoch: 2026-05-25T10:35Z
TLE epoch observation values (Epoch: 2026-05-25T10:35:51.618Z)
Latitude
-0.00008°
Longitude
-101.62855°
Altitude
475.71 km
Speed
7.629 km/s
True Right ascension
20h 01m 27s
True Declination
0° 00' 00"
Sunlit
Object was in full shadow at epoch
Visualization orbit readout
Latitude
Unknown
Longitude
Unknown
Altitude
Unknown
Speed
Unknown
Apparent Right ascension
Unknown
Apparent Declination
Unknown
Sunlit
N/A
Visualization observer readout
Local Sidereal Time
03:04:36
Azimuth
Unknown
Elevation
Unknown
Doppler factor
Unknown
Orbital elements
Apogee altitude
476.218 km
Perigee altitude
474.664 km
Semi-major axis
6,853.578 km
Eccentricity
0.00011
Inclination
53.1603°
RAAN
300.3659°
Arg. of periapsis
61.3048°
True anomaly
298.79521°
Mean anomaly
298.8066°
Eccentric anomaly
298.80091°
Mean motion
3.82531 °/min
Orbital period
94.11 mins
BSTAR
0.00066368
Loading maneuver chart data...
Computing Atmospheric mass density...
Loading historical data...
Loading historical data...
Loading historical data...
Loading historical data...
Loading historical data...
Loading historical data...
Loading historical data...

Documentation

Showing up to 5 results
|